Location: Plainartige
(45.6866°N, 1.7993°E)
Time: 03:30:55
(UTC+00:00)

BEESAT - Pass Details

Date: 04 July 2022
Orbit: 700 x 706 km, 98.6° (Epoch: 11 August)

Event Time Altitude Azimuth Distance (km) Brightness Sun altitude
Rises 20:45:31 0° 10° (N) 3,106 ? -8.8°
Reaches altitude 10° 20:47:48 10° 7° (N) 2,184 ? -9.1°
Maximum altitude 20:52:30 59° 289° (WNW) 818 ? -9.7°
Drops below altitude 10° 20:57:10 10° 210° (SSW) 2,172 ? -10.2°
Sets 20:59:26 0° 207° (SSW) 3,086 ? -10.5°
